Location: Albany
(35.0170°S, 117.8920°E)
Time: 03:19:12
(UTC+08:00)

Vanguard 1 - Pass Details

Date: 02 February 2021
Orbit: 649 x 3833 km, 34.2° (Epoch: 26 February)

Event Time Altitude Azimuth Distance (km) Brightness Sun altitude
Rises 21:55:58 0° 305° (NW) 6,695 14.4 -27.8°
Reaches altitude 10° 22:01:14 10° 309° (NW) 5,176 13.7 -28.5°
Enters shadow 22:12:50 50° 359° (N) 2,009 11.2 -29.9°
Maximum altitude 22:13:56 52° 19° (NNE) 1,877 - -30.0°
Drops below altitude 10° 22:20:54 10° 94° (E) 2,929 - -30.9°
Sets 22:23:04 0° 99° (E) 3,647 - -31.1°
